Time,TemperatureF,DewpointF,PressureIn,WindDirection,WindDirectionDegrees,WindSpeedMPH,WindSpeedGustMPH,Humidity,HourlyPrecipIn,Conditions,Clouds,dailyrainin,SoftwareType,DateUTC
2013-03-29 00:00:00,33.5,30.9,29.99,WNW,288,0.0,7.0,90,0.00,,,0.00,Wunderground v.1.15,2013-03-29 04:00:00,
2013-03-29 00:05:00,33.5,30.9,29.99,WNW,288,0.0,7.0,90,0.00,,,0.00,Wunderground v.1.15,2013-03-29 04:05:00,
2013-03-29 00:10:00,33.5,31.2,29.99,WNW,288,0.0,7.0,91,0.00,,,0.00,Wunderground v.1.15,2013-03-29 04:10:00,
2013-03-29 00:15:00,33.4,31.1,29.99,WNW,288,0.0,7.0,91,0.00,,,0.00,Wunderground v.1.15,2013-03-29 04:15:00,
2013-03-29 00:20:00,33.3,31.0,29.99,WNW,288,0.0,7.0,91,0.00,,,0.00,Wunderground v.1.15,2013-03-29 04:20:00,
2013-03-29 00:25:00,33.2,30.9,30.00,WNW,288,0.0,7.0,91,0.00,,,0.00,Wunderground v.1.15,2013-03-29 04:25:00,
2013-03-29 00:30:00,33.2,30.9,30.00,WNW,288,0.0,7.0,91,0.00,,,0.00,Wunderground v.1.15,2013-03-29 04:30:00,
2013-03-29 00:40:00,33.0,30.4,30.00,WNW,288,0.0,7.0,90,0.00,,,0.00,Wunderground v.1.15,2013-03-29 04:40:00,
2013-03-29 00:45:00,32.8,30.5,30.00,WNW,288,0.0,7.0,91,0.00,,,0.00,Wunderground v.1.15,2013-03-29 04:45:00,
2013-03-29 00:50:00,32.8,30.5,30.00,WNW,288,0.0,7.0,91,0.00,,,0.00,Wunderground v.1.15,2013-03-29 04:50:00,
2013-03-29 00:55:00,32.9,30.6,30.00,WNW,288,0.0,7.0,91,0.00,,,0.00,Wunderground v.1.15,2013-03-29 04:55:00,
2013-03-29 01:05:00,32.9,30.6,30.00,WNW,288,0.0,7.0,91,0.00,,,0.00,Wunderground v.1.15,2013-03-29 05:05:00,
2013-03-29 01:15:00,32.7,30.4,30.00,WNW,288,0.0,7.0,91,0.00,,,0.00,Wunderground v.1.15,2013-03-29 05:15:00,
2013-03-29 01:20:00,32.7,30.6,30.00,WNW,288,0.0,7.0,92,0.00,,,0.00,Wunderground v.1.15,2013-03-29 05:20:00,
2013-03-29 01:25:00,32.9,30.8,30.00,WNW,288,0.0,7.0,92,0.00,,,0.00,Wunderground v.1.15,2013-03-29 05:25:00,
2013-03-29 01:30:00,33.1,31.0,30.00,WNW,288,0.0,7.0,92,0.00,,,0.00,Wunderground v.1.15,2013-03-29 05:30:00,
2013-03-29 01:35:00,33.0,30.7,30.00,WNW,288,0.0,7.0,91,0.00,,,0.00,Wunderground v.1.15,2013-03-29 05:35:00,
2013-03-29 01:40:00,32.9,30.8,30.00,WNW,288,0.0,7.0,92,0.00,,,0.00,Wunderground v.1.15,2013-03-29 05:40:00,
2013-03-29 01:45:00,33.1,31.0,30.00,WNW,288,0.0,7.0,92,0.00,,,0.00,Wunderground v.1.15,2013-03-29 05:45:00,
2013-03-29 01:50:00,33.2,31.1,30.00,WNW,288,0.0,7.0,92,0.00,,,0.00,Wunderground v.1.15,2013-03-29 05:50:00,
2013-03-29 01:55:00,33.2,31.1,30.00,WNW,288,0.0,7.0,92,0.00,,,0.00,Wunderground v.1.15,2013-03-29 05:55:00,
2013-03-29 02:00:00,33.2,31.1,30.00,WNW,288,0.0,7.0,92,0.00,,,0.00,Wunderground v.1.15,2013-03-29 06:00:00,
2013-03-29 02:10:00,33.2,31.1,30.00,WNW,288,0.0,7.0,92,0.00,,,0.00,Wunderground v.1.15,2013-03-29 06:10:00,
2013-03-29 02:15:00,33.2,31.1,30.00,WNW,288,0.0,7.0,92,0.00,,,0.00,Wunderground v.1.15,2013-03-29 06:15:00,
2013-03-29 02:20:00,33.3,31.2,30.00,WNW,288,0.0,7.0,92,0.00,,,0.00,Wunderground v.1.15,2013-03-29 06:20:00,
2013-03-29 02:30:00,33.5,31.4,30.00,WNW,288,0.0,7.0,92,0.00,,,0.00,Wunderground v.1.15,2013-03-29 06:30:00,
2013-03-29 02:35:00,33.7,31.9,30.00,WNW,288,0.0,7.0,93,0.00,,,0.00,Wunderground v.1.15,2013-03-29 06:35:00,
2013-03-29 02:40:00,33.8,31.7,30.00,WNW,288,0.0,7.0,92,0.00,,,0.00,Wunderground v.1.15,2013-03-29 06:40:00,
2013-03-29 02:45:00,34.1,32.3,29.99,WNW,287,1.0,7.0,93,0.00,,,0.00,Wunderground v.1.15,2013-03-29 06:45:00,
2013-03-29 02:55:00,35.2,33.1,29.99,WNW,282,1.0,2.0,92,0.00,,,0.00,Wunderground v.1.15,2013-03-29 06:55:00,
2013-03-29 03:00:00,36.1,34.0,29.99,West,271,2.0,7.0,92,0.00,,,0.00,Wunderground v.1.15,2013-03-29 07:00:00,
2013-03-29 03:05:00,37.0,34.3,29.99,WNW,292,3.0,7.0,90,0.00,,,0.00,Wunderground v.1.15,2013-03-29 07:05:00,
2013-03-29 03:10:00,37.7,34.5,29.99,West,269,3.0,3.0,88,0.00,,,0.00,Wunderground v.1.15,2013-03-29 07:10:00,
2013-03-29 03:15:00,38.1,34.6,29.99,WSW,248,3.0,7.0,87,0.00,,,0.00,Wunderground v.1.15,2013-03-29 07:15:00,
2013-03-29 03:25:00,38.1,34.3,29.99,West,271,2.0,7.0,86,0.00,,,0.00,Wunderground v.1.15,2013-03-29 07:25:00,
2013-03-29 03:30:00,38.1,34.6,29.99,WNW,299,2.0,2.0,87,0.00,,,0.00,Wunderground v.1.15,2013-03-29 07:30:00,
2013-03-29 03:35:00,38.1,34.6,29.99,West,281,2.0,7.0,87,0.00,,,0.00,Wunderground v.1.15,2013-03-29 07:35:00,
2013-03-29 03:40:00,38.3,34.8,29.99,WNW,282,2.0,7.0,87,0.00,,,0.00,Wunderground v.1.15,2013-03-29 07:40:00,
2013-03-29 03:45:00,38.0,34.8,29.99,West,278,3.0,7.0,88,0.00,,,0.00,Wunderground v.1.15,2013-03-29 07:45:00,
2013-03-29 03:50:00,38.0,34.8,29.98,West,276,3.0,7.0,88,0.00,,,0.00,Wunderground v.1.15,2013-03-29 07:50:00,
2013-03-29 04:00:00,38.4,34.9,29.98,West,261,2.0,2.0,87,0.00,,,0.00,Wunderground v.1.15,2013-03-29 08:00:00,
2013-03-29 04:05:00,38.5,34.7,29.98,West,264,2.0,7.0,86,0.00,,,0.00,Wunderground v.1.15,2013-03-29 08:05:00,
2013-03-29 04:10:00,38.6,34.5,29.98,West,279,2.0,7.0,85,0.00,,,0.00,Wunderground v.1.15,2013-03-29 08:10:00,
2013-03-29 04:15:00,38.6,34.5,29.98,West,269,2.0,7.0,85,0.00,,,0.00,Wunderground v.1.15,2013-03-29 08:15:00,
2013-03-29 04:20:00,38.6,34.5,29.98,West,277,2.0,7.0,85,0.00,,,0.00,Wunderground v.1.15,2013-03-29 08:20:00,
2013-03-29 04:30:00,38.9,34.5,29.98,WNW,296,3.0,3.0,84,0.00,,,0.00,Wunderground v.1.15,2013-03-29 08:30:00,
2013-03-29 04:35:00,38.9,34.5,29.98,WNW,299,2.0,7.0,84,0.00,,,0.00,Wunderground v.1.15,2013-03-29 08:35:00,
2013-03-29 04:40:00,39.1,34.4,29.98,West,272,1.0,1.0,83,0.00,,,0.00,Wunderground v.1.15,2013-03-29 08:40:00,
2013-03-29 04:45:00,39.0,34.3,29.98,West,272,2.0,2.0,83,0.00,,,0.00,Wunderground v.1.15,2013-03-29 08:45:00,
2013-03-29 04:50:00,39.1,34.4,29.98,WNW,287,1.0,1.0,83,0.00,,,0.00,Wunderground v.1.15,2013-03-29 08:50:00,
2013-03-29 04:55:00,39.1,34.4,29.98,WNW,288,1.0,2.0,83,0.00,,,0.00,Wunderground v.1.15,2013-03-29 08:55:00,
2013-03-29 05:05:00,38.8,34.1,29.98,West,261,1.0,7.0,83,0.00,,,0.00,Wunderground v.1.15,2013-03-29 09:05:00,
2013-03-29 05:10:00,38.7,34.3,29.98,West,261,1.0,7.0,84,0.00,,,0.00,Wunderground v.1.15,2013-03-29 09:10:00,
2013-03-29 05:15:00,38.6,34.2,29.99,West,273,1.0,7.0,84,0.00,,,0.00,Wunderground v.1.15,2013-03-29 09:15:00,
2013-03-29 05:20:00,38.9,34.2,29.99,WNW,284,2.0,2.0,83,0.00,,,0.00,Wunderground v.1.15,2013-03-29 09:20:00,
2013-03-29 05:25:00,39.1,34.4,29.99,WNW,284,2.0,7.0,83,0.00,,,0.00,Wunderground v.1.15,2013-03-29 09:25:00,
2013-03-29 05:35:00,39.0,34.3,29.99,WNW,284,0.0,7.0,83,0.00,,,0.00,Wunderground v.1.15,2013-03-29 09:35:00,
2013-03-29 05:40:00,39.1,34.1,29.99,WNW,284,0.0,7.0,82,0.00,,,0.00,Wunderground v.1.15,2013-03-29 09:40:00,
2013-03-29 05:45:00,39.3,34.3,29.99,WNW,290,1.0,7.0,82,0.00,,,0.00,Wunderground v.1.15,2013-03-29 09:45:00,
2013-03-29 05:50:00,39.5,34.5,29.99,WNW,290,1.0,1.0,82,0.00,,,0.00,Wunderground v.1.15,2013-03-29 09:50:00,
2013-03-29 06:00:00,39.6,34.2,29.99,NW,306,1.0,7.0,81,0.00,,,0.00,Wunderground v.1.15,2013-03-29 10:00:00,
2013-03-29 06:05:00,39.8,34.1,29.99,WNW,287,2.0,7.0,80,0.00,,,0.00,Wunderground v.1.15,2013-03-29 10:05:00,
2013-03-29 06:10:00,39.8,34.1,29.99,North,355,2.0,2.0,80,0.00,,,0.00,Wunderground v.1.15,2013-03-29 10:10:00,
2013-03-29 06:20:00,39.8,34.1,29.99,West,271,2.0,7.0,80,0.00,,,0.00,Wunderground v.1.15,2013-03-29 10:20:00,
2013-03-29 06:25:00,39.8,34.1,29.99,WNW,284,3.0,7.0,80,0.00,,,0.00,Wunderground v.1.15,2013-03-29 10:25:00,
2013-03-29 06:30:00,39.7,34.0,29.99,WNW,296,2.0,7.0,80,0.00,,,0.00,Wunderground v.1.15,2013-03-29 10:30:00,
2013-03-29 06:35:00,39.8,34.1,29.99,WNW,286,2.0,7.0,80,0.00,,,0.00,Wunderground v.1.15,2013-03-29 10:35:00,
2013-03-29 06:45:00,39.7,34.0,30.00,NW,306,2.0,7.0,80,0.00,,,0.00,Wunderground v.1.15,2013-03-29 10:45:00,
2013-03-29 06:50:00,39.9,34.2,30.00,WNW,300,2.0,7.0,80,0.00,,,0.00,Wunderground v.1.15,2013-03-29 10:50:00,
2013-03-29 06:55:00,40.0,34.3,30.00,NW,309,2.0,7.0,80,0.00,,,0.00,Wunderground v.1.15,2013-03-29 10:55:00,
2013-03-29 07:00:00,40.2,34.5,30.00,WNW,291,3.0,3.0,80,0.00,,,0.00,Wunderground v.1.15,2013-03-29 11:00:00,
2013-03-29 07:05:00,40.4,34.7,30.00,NW,319,2.0,7.0,80,0.00,,,0.00,Wunderground v.1.15,2013-03-29 11:05:00,
2013-03-29 07:15:00,40.5,34.5,30.00,West,268,2.0,7.0,79,0.00,,,0.00,Wunderground v.1.15,2013-03-29 11:15:00,
2013-03-29 07:20:00,40.6,34.6,30.00,WNW,284,2.0,2.0,79,0.00,,,0.00,Wunderground v.1.15,2013-03-29 11:20:00,
2013-03-29 07:25:00,40.9,34.9,30.00,NW,304,3.0,3.0,79,0.00,,,0.00,Wunderground v.1.15,2013-03-29 11:25:00,
2013-03-29 07:30:00,41.1,35.1,30.00,West,277,3.0,3.0,79,0.00,,,0.00,Wunderground v.1.15,2013-03-29 11:30:00,
2013-03-29 07:35:00,41.4,35.4,30.00,West,266,3.0,4.0,79,0.00,,,0.00,Wunderground v.1.15,2013-03-29 11:35:00,
2013-03-29 07:40:00,41.6,35.6,30.00,West,272,4.0,7.0,79,0.00,,,0.00,Wunderground v.1.15,2013-03-29 11:40:00,
2013-03-29 07:50:00,41.9,35.5,30.00,WNW,301,4.0,7.0,78,0.00,,,0.00,Wunderground v.1.15,2013-03-29 11:50:00,
2013-03-29 07:55:00,42.1,35.7,30.01,WNW,292,4.0,7.0,78,0.00,,,0.00,Wunderground v.1.15,2013-03-29 11:55:00,
2013-03-29 08:00:00,42.2,35.8,30.01,WNW,282,4.0,7.0,78,0.00,,,0.00,Wunderground v.1.15,2013-03-29 12:00:00,
2013-03-29 08:05:00,42.3,35.9,30.01,NNW,348,3.0,7.0,78,0.00,,,0.00,Wunderground v.1.15,2013-03-29 12:05:00,
2013-03-29 08:10:00,42.4,36.0,30.00,WNW,292,2.0,7.0,78,0.00,,,0.00,Wunderground v.1.15,2013-03-29 12:10:00,
2013-03-29 08:20:00,42.7,36.0,30.00,WNW,288,3.0,3.0,77,0.00,,,0.00,Wunderground v.1.15,2013-03-29 12:20:00,
2013-03-29 08:25:00,42.8,36.1,30.01,West,280,4.0,4.0,77,0.00,,,0.00,Wunderground v.1.15,2013-03-29 12:25:00,
2013-03-29 08:30:00,42.9,35.9,30.01,West,279,5.0,7.0,76,0.00,,,0.00,Wunderground v.1.15,2013-03-29 12:30:00,
2013-03-29 08:35:00,43.1,36.0,30.00,West,276,5.0,7.0,76,0.00,,,0.00,Wunderground v.1.15,2013-03-29 12:35:00,
2013-03-29 08:40:00,43.3,36.2,30.00,NW,304,5.0,5.0,76,0.00,,,0.00,Wunderground v.1.15,2013-03-29 12:40:00,
2013-03-29 08:45:00,43.5,36.4,30.01,NW,310,5.0,7.0,76,0.00,,,0.00,Wunderground v.1.15,2013-03-29 12:45:00,
2013-03-29 08:55:00,44.0,36.6,30.01,NW,313,4.0,6.0,75,0.00,,,0.00,Wunderground v.1.15,2013-03-29 12:55:00,
2013-03-29 09:00:00,44.6,37.2,30.00,West,272,6.0,6.0,75,0.00,,,0.00,Wunderground v.1.15,2013-03-29 13:00:00,
2013-03-29 09:05:00,45.3,37.5,30.00,WSW,250,5.0,7.0,74,0.00,,,0.00,Wunderground v.1.15,2013-03-29 13:05:00,
2013-03-29 09:15:00,46.2,37.7,30.00,North,355,3.0,8.0,72,0.00,,,0.00,Wunderground v.1.15,2013-03-29 13:15:00,
2013-03-29 09:20:00,46.4,37.5,30.00,WSW,242,5.0,5.0,71,0.00,,,0.00,Wunderground v.1.15,2013-03-29 13:20:00,
2013-03-29 09:25:00,46.7,37.4,30.00,NNW,330,5.0,7.0,70,0.00,,,0.00,Wunderground v.1.15,2013-03-29 13:25:00,
2013-03-29 09:35:00,46.9,37.6,30.00,NW,323,6.0,7.0,70,0.00,,,0.00,Wunderground v.1.15,2013-03-29 13:35:00,
2013-03-29 09:40:00,47.4,37.7,30.00,West,268,5.0,8.0,69,0.00,,,0.00,Wunderground v.1.15,2013-03-29 13:40:00,
2013-03-29 09:45:00,47.8,37.7,30.00,WNW,286,5.0,8.0,68,0.00,,,0.00,Wunderground v.1.15,2013-03-29 13:45:00,
2013-03-29 09:50:00,47.7,38.0,30.00,WSW,253,5.0,7.0,69,0.00,,,0.00,Wunderground v.1.15,2013-03-29 13:50:00,
2013-03-29 10:00:00,48.7,38.2,30.00,NW,308,5.0,8.0,67,0.00,,,0.00,Wunderground v.1.15,2013-03-29 14:00:00,
2013-03-29 10:05:00,48.8,37.9,30.00,NW,308,5.0,9.0,66,0.00,,,0.00,Wunderground v.1.15,2013-03-29 14:05:00,
2013-03-29 10:10:00,49.0,37.7,30.00,WNW,293,7.0,7.0,65,0.00,,,0.00,Wunderground v.1.15,2013-03-29 14:10:00,
2013-03-29 10:15:00,49.2,37.9,30.00,West,271,7.0,7.0,65,0.00,,,0.00,Wunderground v.1.15,2013-03-29 14:15:00,
2013-03-29 10:20:00,49.7,38.0,30.00,ENE,62,6.0,6.0,64,0.00,,,0.00,Wunderground v.1.15,2013-03-29 14:20:00,
2013-03-29 10:25:00,50.0,37.9,30.00,NW,309,6.0,7.0,63,0.00,,,0.00,Wunderground v.1.15,2013-03-29 14:25:00,
2013-03-29 10:35:00,50.7,38.1,30.00,WNW,288,6.0,9.0,62,0.00,,,0.00,Wunderground v.1.15,2013-03-29 14:35:00,
2013-03-29 10:40:00,50.7,37.3,30.00,WNW,284,8.0,12.0,60,0.00,,,0.00,Wunderground v.1.15,2013-03-29 14:40:00,
2013-03-29 10:45:00,51.0,37.6,30.00,West,262,9.0,12.0,60,0.00,,,0.00,Wunderground v.1.15,2013-03-29 14:45:00,
2013-03-29 10:50:00,51.3,37.0,30.00,West,267,8.0,9.0,58,0.00,,,0.00,Wunderground v.1.15,2013-03-29 14:50:00,
2013-03-29 10:55:00,51.4,36.7,30.00,WNW,286,9.0,9.0,57,0.00,,,0.00,Wunderground v.1.15,2013-03-29 14:55:00,
2013-03-29 11:05:00,51.8,36.6,30.00,West,279,10.0,12.0,56,0.00,,,0.00,Wunderground v.1.15,2013-03-29 15:05:00,
2013-03-29 11:10:00,51.8,35.7,30.00,WNW,294,11.0,13.0,54,0.00,,,0.00,Wunderground v.1.15,2013-03-29 15:10:00,
2013-03-29 11:15:00,52.1,35.9,30.00,WNW,301,12.0,13.0,54,0.00,,,0.00,Wunderground v.1.15,2013-03-29 15:15:00,
2013-03-29 11:20:00,52.6,35.9,30.00,WNW,292,9.0,9.0,53,0.00,,,0.00,Wunderground v.1.15,2013-03-29 15:20:00,
2013-03-29 11:25:00,52.8,35.6,29.99,NE,34,8.0,14.0,52,0.00,,,0.00,Wunderground v.1.15,2013-03-29 15:25:00,
2013-03-29 11:30:00,52.7,36.0,29.99,NNE,24,9.0,9.0,53,0.00,,,0.00,Wunderground v.1.15,2013-03-29 15:30:00,
2013-03-29 11:40:00,52.8,35.6,30.00,WSW,257,10.0,10.0,52,0.00,,,0.00,Wunderground v.1.15,2013-03-29 15:40:00,
2013-03-29 11:45:00,52.9,35.7,29.99,NNE,16,11.0,11.0,52,0.00,,,0.00,Wunderground v.1.15,2013-03-29 15:45:00,
2013-03-29 11:50:00,53.1,35.4,29.99,NW,324,7.0,7.0,51,0.00,,,0.00,Wunderground v.1.15,2013-03-29 15:50:00,
2013-03-29 11:55:00,53.5,36.3,29.99,NW,316,6.0,14.0,52,0.00,,,0.00,Wunderground v.1.15,2013-03-29 15:55:00,
2013-03-29 12:00:00,53.2,35.5,29.99,NNE,12,7.0,7.0,51,0.00,,,0.00,Wunderground v.1.15,2013-03-29 16:00:00,
2013-03-29 12:10:00,53.4,35.2,29.99,WNW,300,8.0,11.0,50,0.00,,,0.00,Wunderground v.1.15,2013-03-29 16:10:00,
2013-03-29 12:15:00,53.5,35.3,29.99,NNE,28,7.0,11.0,50,0.00,,,0.00,Wunderground v.1.15,2013-03-29 16:15:00,
2013-03-29 12:20:00,54.1,35.3,29.98,NW,323,7.0,13.0,49,0.00,,,0.00,Wunderground v.1.15,2013-03-29 16:20:00,
2013-03-29 12:25:00,54.2,34.9,29.98,NW,306,8.0,13.0,48,0.00,,,0.00,Wunderground v.1.15,2013-03-29 16:25:00,
2013-03-29 12:30:00,54.2,34.4,29.98,NW,312,9.0,11.0,47,0.00,,,0.00,Wunderground v.1.15,2013-03-29 16:30:00,
2013-03-29 12:40:00,55.1,35.2,29.98,NW,315,7.0,7.0,47,0.00,,,0.00,Wunderground v.1.15,2013-03-29 16:40:00,
2013-03-29 12:45:00,54.6,34.2,29.98,NE,55,5.0,7.0,46,0.00,,,0.00,Wunderground v.1.15,2013-03-29 16:45:00,
2013-03-29 12:50:00,54.1,33.8,29.98,NNW,331,9.0,9.0,46,0.00,,,0.00,Wunderground v.1.15,2013-03-29 16:50:00,
2013-03-29 13:00:00,54.5,34.1,29.98,NNW,342,8.0,8.0,46,0.00,,,0.00,Wunderground v.1.15,2013-03-29 17:00:00,
2013-03-29 13:05:00,53.5,32.7,29.98,NE,36,9.0,9.0,45,0.00,,,0.00,Wunderground v.1.15,2013-03-29 17:05:00,
2013-03-29 13:10:00,54.1,34.3,29.98,WSW,246,8.0,8.0,47,0.00,,,0.00,Wunderground v.1.15,2013-03-29 17:10:00,
2013-03-29 13:20:00,55.4,34.4,29.98,WNW,298,6.0,6.0,45,0.00,,,0.00,Wunderground v.1.15,2013-03-29 17:20:00,
2013-03-29 13:25:00,54.8,32.7,29.97,NNE,14,9.0,9.0,43,0.00,,,0.00,Wunderground v.1.15,2013-03-29 17:25:00,
2013-03-29 13:30:00,54.4,32.9,29.97,NE,46,9.0,9.0,44,0.00,,,0.00,Wunderground v.1.15,2013-03-29 17:30:00,
2013-03-29 13:35:00,54.9,33.4,29.97,West,259,6.0,9.0,44,0.00,,,0.00,Wunderground v.1.15,2013-03-29 17:35:00,
2013-03-29 13:40:00,54.4,32.3,29.97,NW,312,7.0,9.0,43,0.00,,,0.00,Wunderground v.1.15,2013-03-29 17:40:00,
2013-03-29 13:50:00,55.3,32.6,29.97,NNE,27,8.0,12.0,42,0.00,,,0.00,Wunderground v.1.15,2013-03-29 17:50:00,
2013-03-29 13:55:00,55.1,32.4,29.97,NW,315,8.0,12.0,42,0.00,,,0.00,Wunderground v.1.15,2013-03-29 17:55:00,
2013-03-29 14:00:00,55.2,31.9,29.96,WNW,296,8.0,8.0,41,0.00,,,0.00,Wunderground v.1.15,2013-03-29 18:00:00,
2013-03-29 14:05:00,55.1,31.2,29.96,NNW,330,10.0,16.0,40,0.00,,,0.00,Wunderground v.1.15,2013-03-29 18:05:00,
2013-03-29 14:10:00,54.7,32.0,29.96,NW,309,11.0,11.0,42,0.00,,,0.00,Wunderground v.1.15,2013-03-29 18:10:00,
2013-03-29 14:15:00,55.6,31.6,29.96,NNE,23,9.0,11.0,40,0.00,,,0.00,Wunderground v.1.15,2013-03-29 18:15:00,
2013-03-29 14:25:00,54.4,31.8,29.96,West,267,8.0,9.0,42,0.00,,,0.00,Wunderground v.1.15,2013-03-29 18:25:00,
2013-03-29 14:30:00,53.9,31.3,29.96,West,276,7.0,11.0,42,0.00,,,0.00,Wunderground v.1.15,2013-03-29 18:30:00,
2013-03-29 14:35:00,54.0,31.4,29.96,WNW,286,8.0,11.0,42,0.00,,,0.00,Wunderground v.1.15,2013-03-29 18:35:00,
2013-03-29 14:40:00,54.5,30.0,29.96,NNE,15,8.0,8.0,39,0.00,,,0.00,Wunderground v.1.15,2013-03-29 18:40:00,
2013-03-29 14:45:00,54.4,30.6,29.96,NW,309,10.0,10.0,40,0.00,,,0.00,Wunderground v.1.15,2013-03-29 18:45:00,
2013-03-29 14:55:00,54.4,31.2,29.96,WNW,298,10.0,12.0,41,0.00,,,0.00,Wunderground v.1.15,2013-03-29 18:55:00,
2013-03-29 15:00:00,54.7,30.8,29.96,WNW,291,10.0,15.0,40,0.00,,,0.00,Wunderground v.1.15,2013-03-29 19:00:00,
2013-03-29 15:05:00,55.2,31.9,29.96,NNW,329,9.0,15.0,41,0.00,,,0.00,Wunderground v.1.15,2013-03-29 19:05:00,
2013-03-29 15:10:00,55.1,31.8,29.96,NE,40,8.0,8.0,41,0.00,,,0.00,Wunderground v.1.15,2013-03-29 19:10:00,
2013-03-29 15:15:00,54.6,31.3,29.96,NNE,27,8.0,8.0,41,0.00,,,0.00,Wunderground v.1.15,2013-03-29 19:15:00,
2013-03-29 15:20:00,54.6,31.9,29.96,NE,36,7.0,7.0,42,0.00,,,0.00,Wunderground v.1.15,2013-03-29 19:20:00,
2013-03-29 15:30:00,54.6,30.7,29.96,WNW,299,9.0,10.0,40,0.00,,,0.00,Wunderground v.1.15,2013-03-29 19:30:00,
2013-03-29 15:35:00,54.8,32.1,29.96,WNW,302,9.0,10.0,42,0.00,,,0.00,Wunderground v.1.15,2013-03-29 19:35:00,
2013-03-29 15:40:00,54.8,30.9,29.96,NW,304,7.0,7.0,40,0.00,,,0.00,Wunderground v.1.15,2013-03-29 19:40:00,
2013-03-29 15:45:00,55.0,31.1,29.96,NNW,340,7.0,10.0,40,0.00,,,0.00,Wunderground v.1.15,2013-03-29 19:45:00,
2013-03-29 15:50:00,54.0,30.8,29.96,NW,310,8.0,9.0,41,0.00,,,0.00,Wunderground v.1.15,2013-03-29 19:50:00,
2013-03-29 16:00:00,54.5,31.9,29.96,NNW,348,8.0,8.0,42,0.00,,,0.00,Wunderground v.1.15,2013-03-29 20:00:00,
2013-03-29 16:05:00,54.0,32.0,29.96,NW,312,9.0,9.0,43,0.00,,,0.00,Wunderground v.1.15,2013-03-29 20:05:00,
2013-03-29 16:10:00,54.2,32.2,29.96,NW,312,9.0,9.0,43,0.00,,,0.00,Wunderground v.1.15,2013-03-29 20:10:00,
2013-03-29 16:15:00,53.8,31.8,29.96,NNW,339,7.0,9.0,43,0.00,,,0.00,Wunderground v.1.15,2013-03-29 20:15:00,
2013-03-29 16:20:00,53.4,32.0,29.96,WNW,293,7.0,7.0,44,0.00,,,0.00,Wunderground v.1.15,2013-03-29 20:20:00,
2013-03-29 16:30:00,52.9,31.6,29.96,NW,320,5.0,5.0,44,0.00,,,0.00,Wunderground v.1.15,2013-03-29 20:30:00,
2013-03-29 16:35:00,53.2,31.8,29.96,WNW,283,4.0,8.0,44,0.00,,,0.00,Wunderground v.1.15,2013-03-29 20:35:00,
2013-03-29 16:40:00,52.9,31.6,29.96,NW,309,4.0,7.0,44,0.00,,,0.00,Wunderground v.1.15,2013-03-29 20:40:00,
2013-03-29 16:50:00,52.5,31.2,29.96,WNW,294,7.0,7.0,44,0.00,,,0.00,Wunderground v.1.15,2013-03-29 20:50:00,
2013-03-29 16:55:00,52.6,31.3,29.97,NW,313,9.0,9.0,44,0.00,,,0.00,Wunderground v.1.15,2013-03-29 20:55:00,
2013-03-29 17:00:00,52.6,31.3,29.96,West,281,7.0,13.0,44,0.00,,,0.00,Wunderground v.1.15,2013-03-29 21:00:00,
2013-03-29 17:10:00,52.2,31.5,29.97,NW,319,9.0,9.0,45,0.00,,,0.00,Wunderground v.1.15,2013-03-29 21:10:00,
2013-03-29 17:15:00,52.1,31.4,29.97,NW,313,8.0,9.0,45,0.00,,,0.00,Wunderground v.1.15,2013-03-29 21:15:00,
2013-03-29 17:20:00,52.1,31.4,29.97,WNW,290,7.0,7.0,45,0.00,,,0.00,Wunderground v.1.15,2013-03-29 21:20:00,
2013-03-29 17:25:00,51.9,31.2,29.97,NE,43,5.0,7.0,45,0.00,,,0.00,Wunderground v.1.15,2013-03-29 21:25:00,
2013-03-29 17:30:00,51.8,31.7,29.97,West,269,5.0,7.0,46,0.00,,,0.00,Wunderground v.1.15,2013-03-29 21:30:00,
2013-03-29 17:40:00,51.4,31.8,29.97,WNW,293,7.0,10.0,47,0.00,,,0.00,Wunderground v.1.15,2013-03-29 21:40:00,
2013-03-29 17:45:00,51.3,31.7,29.97,West,275,7.0,10.0,47,0.00,,,0.00,Wunderground v.1.15,2013-03-29 21:45:00,
2013-03-29 17:50:00,51.3,31.7,29.97,NW,311,5.0,5.0,47,0.00,,,0.00,Wunderground v.1.15,2013-03-29 21:50:00,
2013-03-29 17:55:00,51.4,31.8,29.98,North,5,5.0,7.0,47,0.00,,,0.00,Wunderground v.1.15,2013-03-29 21:55:00,
2013-03-29 18:00:00,51.3,31.2,29.98,NW,316,5.0,7.0,46,0.00,,,0.00,Wunderground v.1.15,2013-03-29 22:00:00,
2013-03-29 18:05:00,51.2,31.1,29.98,ENE,72,6.0,7.0,46,0.00,,,0.00,Wunderground v.1.15,2013-03-29 22:05:00,
2013-03-29 18:15:00,51.0,30.9,29.98,North,9,5.0,7.0,46,0.00,,,0.00,Wunderground v.1.15,2013-03-29 22:15:00,
2013-03-29 18:20:00,50.7,31.2,29.98,West,278,5.0,5.0,47,0.00,,,0.00,Wunderground v.1.15,2013-03-29 22:20:00,
2013-03-29 18:25:00,50.6,31.6,29.98,NNW,334,5.0,9.0,48,0.00,,,0.00,Wunderground v.1.15,2013-03-29 22:25:00,
2013-03-29 18:30:00,50.5,31.5,29.98,WNW,290,6.0,7.0,48,0.00,,,0.00,Wunderground v.1.15,2013-03-29 22:30:00,
2013-03-29 18:35:00,50.3,31.3,29.99,West,269,6.0,7.0,48,0.00,,,0.00,Wunderground v.1.15,2013-03-29 22:35:00,
2013-03-29 18:45:00,50.1,31.7,29.99,WNW,283,5.0,7.0,49,0.00,,,0.00,Wunderground v.1.15,2013-03-29 22:45:00,
2013-03-29 18:50:00,50.0,31.6,29.99,West,274,4.0,7.0,49,0.00,,,0.00,Wunderground v.1.15,2013-03-29 22:50:00,
2013-03-29 18:55:00,49.8,31.4,29.99,WNW,294,4.0,7.0,49,0.00,,,0.00,Wunderground v.1.15,2013-03-29 22:55:00,
2013-03-29 19:00:00,49.6,31.2,29.99,NW,308,5.0,9.0,49,0.00,,,0.00,Wunderground v.1.15,2013-03-29 23:00:00,
2013-03-29 19:05:00,49.5,30.6,29.99,WNW,294,7.0,10.0,48,0.00,,,0.00,Wunderground v.1.15,2013-03-29 23:05:00,
2013-03-29 19:10:00,49.4,30.5,29.99,NNW,327,8.0,8.0,48,0.00,,,0.00,Wunderground v.1.15,2013-03-29 23:10:00,
2013-03-29 19:20:00,49.0,30.7,29.99,WNW,287,5.0,5.0,49,0.00,,,0.00,Wunderground v.1.15,2013-03-29 23:20:00,
2013-03-29 19:25:00,48.8,31.0,30.00,NW,309,5.0,8.0,50,0.00,,,0.00,Wunderground v.1.15,2013-03-29 23:25:00,
2013-03-29 19:30:00,48.7,30.9,30.00,WNW,294,3.0,3.0,50,0.00,,,0.00,Wunderground v.1.15,2013-03-29 23:30:00,
2013-03-29 19:40:00,48.3,31.0,30.00,WNW,284,2.0,7.0,51,0.00,,,0.00,Wunderground v.1.15,2013-03-29 23:40:00,
2013-03-29 19:45:00,48.1,30.8,30.00,NNW,327,2.0,7.0,51,0.00,,,0.00,Wunderground v.1.15,2013-03-29 23:45:00,
2013-03-29 19:50:00,48.0,31.2,30.00,NW,305,2.0,7.0,52,0.00,,,0.00,Wunderground v.1.15,2013-03-29 23:50:00,
2013-03-29 19:55:00,47.9,31.1,30.00,NW,309,2.0,7.0,52,0.00,,,0.00,Wunderground v.1.15,2013-03-29 23:55:00,
2013-03-29 20:05:00,47.6,31.3,30.00,NNW,331,2.0,7.0,53,0.00,,,0.00,Wunderground v.1.15,2013-03-30 00:05:00,
2013-03-29 20:10:00,47.5,31.2,30.00,NW,323,2.0,7.0,53,0.00,,,0.00,Wunderground v.1.15,2013-03-30 00:10:00,
2013-03-29 20:15:00,47.3,31.0,30.01,NW,325,1.0,7.0,53,0.00,,,0.00,Wunderground v.1.15,2013-03-30 00:15:00,
2013-03-29 20:20:00,47.0,31.2,30.01,NW,325,1.0,1.0,54,0.00,,,0.00,Wunderground v.1.15,2013-03-30 00:20:00,
2013-03-29 20:25:00,46.7,31.4,30.01,WNW,296,1.0,3.0,55,0.00,,,0.00,Wunderground v.1.15,2013-03-30 00:25:00,
2013-03-29 20:30:00,46.4,31.1,30.01,NW,313,2.0,7.0,55,0.00,,,0.00,Wunderground v.1.15,2013-03-30 00:30:00,
2013-03-29 20:35:00,46.1,31.3,30.02,WNW,302,3.0,7.0,56,0.00,,,0.00,Wunderground v.1.15,2013-03-30 00:35:00,
2013-03-29 20:40:00,45.8,31.0,30.02,NW,312,2.0,7.0,56,0.00,,,0.00,Wunderground v.1.15,2013-03-30 00:40:00,
2013-03-29 20:45:00,45.6,30.8,30.02,WNW,296,2.0,7.0,56,0.00,,,0.00,Wunderground v.1.15,2013-03-30 00:45:00,
2013-03-29 20:50:00,45.4,31.0,30.02,NW,311,2.0,2.0,57,0.00,,,0.00,Wunderground v.1.15,2013-03-30 00:50:00,
2013-03-29 21:00:00,45.0,31.1,30.02,WNW,297,1.0,1.0,58,0.00,,,0.00,Wunderground v.1.15,2013-03-30 01:00:00,
2013-03-29 21:05:00,44.9,31.0,30.02,NNW,337,1.0,7.0,58,0.00,,,0.00,Wunderground v.1.15,2013-03-30 01:05:00,
2013-03-29 21:10:00,44.8,31.3,30.02,NNW,337,1.0,1.0,59,0.00,,,0.00,Wunderground v.1.15,2013-03-30 01:10:00,
2013-03-29 21:15:00,44.6,30.7,30.02,NNW,331,0.0,7.0,58,0.00,,,0.00,Wunderground v.1.15,2013-03-30 01:15:00,
2013-03-29 21:20:00,44.2,30.3,30.02,NNW,331,0.0,7.0,58,0.00,,,0.00,Wunderground v.1.15,2013-03-30 01:20:00,
2013-03-29 21:30:00,43.3,30.7,30.02,NW,311,1.0,7.0,61,0.00,,,0.00,Wunderground v.1.15,2013-03-30 01:30:00,
2013-03-29 21:35:00,43.1,30.6,30.02,NW,311,1.0,7.0,61,0.00,,,0.00,Wunderground v.1.15,2013-03-30 01:35:00,
2013-03-29 21:40:00,43.3,30.3,30.03,NW,315,1.0,1.0,60,0.00,,,0.00,Wunderground v.1.15,2013-03-30 01:40:00,
2013-03-29 21:45:00,43.1,30.6,30.03,NNW,331,0.0,7.0,61,0.00,,,0.00,Wunderground v.1.15,2013-03-30 01:45:00,
2013-03-29 21:50:00,42.7,30.6,30.03,NNW,331,0.0,7.0,62,0.00,,,0.00,Wunderground v.1.15,2013-03-30 01:50:00,
2013-03-29 21:55:00,41.9,30.2,30.03,NNW,331,0.0,7.0,63,0.00,,,0.00,Wunderground v.1.15,2013-03-30 01:55:00,
2013-03-29 22:05:00,40.7,29.8,30.03,NNW,331,0.0,7.0,65,0.00,,,0.00,Wunderground v.1.15,2013-03-30 02:05:00,
2013-03-29 22:10:00,40.2,29.7,30.03,NW,306,1.0,1.0,66,0.00,,,0.00,Wunderground v.1.15,2013-03-30 02:10:00,
2013-03-29 22:15:00,40.0,30.3,30.03,NW,306,1.0,7.0,68,0.00,,,0.00,Wunderground v.1.15,2013-03-30 02:15:00,
2013-03-29 22:20:00,39.5,30.5,30.03,NW,306,0.0,7.0,70,0.00,,,0.00,Wunderground v.1.15,2013-03-30 02:20:00,
2013-03-29 22:25:00,39.0,30.0,30.03,NW,306,0.0,7.0,70,0.00,,,0.00,Wunderground v.1.15,2013-03-30 02:25:00,
2013-03-29 22:35:00,38.8,30.2,30.03,NW,306,0.0,7.0,71,0.00,,,0.00,Wunderground v.1.15,2013-03-30 02:35:00,
2013-03-29 22:45:00,38.4,29.8,30.03,NW,306,0.0,7.0,71,0.00,,,0.00,Wunderground v.1.15,2013-03-30 02:45:00,
2013-03-29 22:50:00,38.2,29.6,30.03,NW,306,0.0,7.0,71,0.00,,,0.00,Wunderground v.1.15,2013-03-30 02:50:00,
2013-03-29 22:55:00,37.9,30.0,30.03,NW,306,0.0,7.0,73,0.00,,,0.00,Wunderground v.1.15,2013-03-30 02:55:00,
2013-03-29 23:00:00,37.7,29.5,30.03,NW,306,0.0,7.0,72,0.00,,,0.00,Wunderground v.1.15,2013-03-30 03:00:00,
2013-03-29 23:10:00,37.1,29.6,30.03,NW,306,0.0,7.0,74,0.00,,,0.00,Wunderground v.1.15,2013-03-30 03:10:00,
2013-03-29 23:15:00,36.8,29.3,30.03,NW,306,0.0,7.0,74,0.00,,,0.00,Wunderground v.1.15,2013-03-30 03:15:00,
2013-03-29 23:20:00,36.9,30.0,30.03,WNW,300,1.0,1.0,76,0.00,,,0.00,Wunderground v.1.15,2013-03-30 03:20:00,
2013-03-29 23:25:00,37.7,30.2,30.03,WNW,300,0.0,7.0,74,0.00,,,0.00,Wunderground v.1.15,2013-03-30 03:25:00,
2013-03-29 23:30:00,37.7,30.2,30.03,WNW,300,0.0,7.0,74,0.00,,,0.00,Wunderground v.1.15,2013-03-30 03:30:00,
2013-03-29 23:35:00,37.2,29.7,30.03,WNW,300,0.0,7.0,74,0.00,,,0.00,Wunderground v.1.15,2013-03-30 03:35:00,
2013-03-29 23:45:00,36.8,29.6,30.03,WNW,300,0.0,7.0,75,0.00,,,0.00,Wunderground v.1.15,2013-03-30 03:45:00,
2013-03-29 23:50:00,36.7,29.5,30.03,North,355,0.0,7.0,75,0.00,,,0.00,Wunderground v.1.15,2013-03-30 03:50:00,
2013-03-29 23:55:00,36.8,29.9,30.03,North,355,0.0,7.0,76,0.00,,,0.00,Wunderground v.1.15,2013-03-30 03:55:00,